Cloud_Cover
100 77 100 82 100 31 86 85 61 100 98 99 96 89 29 23 20 7 5 0 0 0 0 0 0 0 0 0 0 0 0 0 0 0 0 0 0 0 0 0 0 0 0 0 0 0 0
100 100 49 100 1 78 25 51 100 100 82 36 20 84 30 18 20 7 13 2 0 0 0 0 0 0 0 0 0 0 0 0 0 0 0 0 0 0 0 0 0 0 0 0 0 0 4
100 19 100 45 24 8 21 73 100 97 14 5 10 6 4 12 10 8 1 2 0 0 0 0 0 0 0 0 0 0 0 0 0 0 0 0 0 0 0 0 0 0 0 0 0 0 4
100 30 89 73 32 100 90 100 100 63 18 5 8 13 11 17 9 12 4 4 0 0 0 0 0 0 0 0 0 0 0 0 0 0 0 0 0 0 0 0 0 0 0 0 0 1 0
100 100 100 100 75 99 34 46 61 90 2 4 3 4 2 8 2 0 0 2 0 0 0 0 0 0 0 0 0 0 0 0 0 0 0 0 0 0 0 0 0 0 5 0 0 0 0
100 100 100 100 100 88 100 100 17 6 5 2 5 7 1 1 0 2 0 0 0 0 0 0 0 0 2 1 2 5 3 0 0 0 0 0 0 0 0 0 0 0 0 0 0 2 5
100 100 100 100 100 100 100 100 98 86 25 20 5 5 5 5 4 5 5 3 0 0 0 0 0 5 5 5 5 6 5 0 0 0 0 0 0 0 0 0 0 0 0 0 3 5 1
100 100 100 100 100 100 100 100 99 100 71 37 42 97 34 5 6 5 5 5 5 5 0 0 3 2 6 5 5 5 5 4 0 0 0 0 0 2 0 0 0 0 0 0 0 0 1
100 100 100 100 100 100 100 100 100 96 98 91 59 62 72 43 100 99 77 25 5 5 1 0 3 5 5 2 5 2 5 5 5 0 0 0 0 1 5 5 5 0 0 0 0 0 2
100 100 100 100 100 100 100 100 100 100 100 100 100 100 99 100 99 100 99 77 95 58 78 2 9 5 5 5 3 2 5 5 5 5 5 2 2 5 5 5 5 5 0 0 0 0 0
100 100 100 100 100 100 100 100 100 100 100 100 100 100 100 100 100 100 100 100 100 100 100 80 6 5 1 0 0 0 5 5 5 2 0 0 0 5 5 5 44 6 5 0 0 0 0
100 100 100 100 100 100 100 100 100 100 100 100 100 100 100 100 99 100 100 100 100 100 100 79 75 8 7 3 2 0 1 3 5 6 3 4 3 3 5 5 5 93 54 6 0 0 4
100 100 100 100 100 100 100 100 100 100 100 100 100 100 97 100 100 99 91 100 100 100 100 100 100 42 9 5 5 5 4 5 5 17 70 5 5 5 79 20 8 5 98 99 9 5 0
100 100 100 100 100 100 100 100 100 100 100 100 100 100 100 100 100 94 86 100 78 100 100 100 71 99 64 29 5 5 5 5 5 5 11 70 12 40 5 5 5 5 5 9 5 4 0
100 100 100 100 100 100 100 100 100 100 100 100 100 100 100 100 84 94 100 100 100 100 100 100 100 100 100 100 12 5 5 5 5 5 6 5 58 11 5 5 5 5 5 6 90 86 12
100 100 100 100 100 100 100 100 100 100 100 100 100 100 100 100 100 84 87 100 100 100 87 91 100 96 100 100 100 99 68 32 8 5 58 29 72 69 26 6 5 5 74 51 86 96 78
100 100 100 100 100 100 100 100 100 100 100 100 100 100 100 100 100 82 96 100 100 100 89 76 84 38 79 74 100 94 56 44 100 43 6 5 74 37 61 87 21 5 5 30 92 95 100
79 52 100 100 100 100 100 100 100 100 100 100 100 100 100 100 100 100 100 100 100 100 100 100 100 100 100 100 100 100 100 100 12 29 30 5 5 53 22 75 100 98 5 5 33 81 100
5 5 73 100 100 99 100 100 100 99 92 100 99 100 100 100 100 100 100 100 100 100 100 100 100 100 100 100 8 39 98 44 5 47 5 17 5 7 5 5 95 100 100 32 56 100 100
5 8 100 100 100 100 100 92 63 95 100 100 88 96 63 13 9 6 57 20 41 71 28 84 100 17 4 5 18 57 98 59 92 52 15 5 5 0 0 0 2 36 87 100 12 96 100
5 5 5 24 19 86 58 100 100 100 100 96 100 100 100 100 38 8 15 18 23 5 5 5 12 6 3 4 0 5 5 0 5 5 5 5 0 0 0 0 0 0 6 54 100 76 100
6 39 27 100 100 100 80 100 100 100 100 99 99 100 100 100 100 100 100 100 100 100 81 100 69 81 5 5 16 5 0 0 0 3 5 5 2 0 0 0 0 3 0 0 0 18 99
5 5 92 100 100 100 100 100 100 100 100 100 100 100 99 94 90 100 100 100 100 100 100 100 98 99 100 100 100 69 6 2 0 4 5 5 4 1 4 0 0 0 0 0 0 0 4
6 26 18 59 62 49 99 47 99 100 100 100 100 99 100 84 100 100 100 100 100 100 100 100 100 100 100 100 100 100 51 5 4 5 5 5 5 2 5 4 4 5 0 0 2 0 0
96 100 100 100 100 100 100 100 100 92 100 100 100 100 99 97 99 100 100 100 100 100 100 100 100 100 100 100 100 84 97 10 2 5 5 10 9 5 4 5 1 0 2 0 1 5 0
97 100 100 100 100 93 100 100 100 100 100 93 99 91 100 100 99 100 100 100 100 100 100 100 100 100 100 100 100 69 98 79 9 15 100 26 5 5 5 5 5 5 53 9 0 5 5
80 99 100 100 100 100 100 100 100 100 100 100 100 100 100 100 100 100 100 100 100 100 100 100 100 100 100 100 100 100 86 100 65 45 63 30 25 13 96 75 11 98 100 33 1 3 5
100 100 93 98 100 100 100 100 100 100 100 100 100 100 100 100 100 100 100 100 100 100 100 100 100 100 100 100 100 96 79 98 57 34 12 22 32 68 91 98 80 100 55 46 5 5 2
100 100 97 80 52 70 70 76 5 6 5 48 73 64 43 100 99 77 100 100 99 21 17 76 58 100 100 100 100 100 100 100 63 20 100 98 100 100 97 9 5 5 13 24 5 5 5